RYR55LM EBCI-EGNT

Flight info

Callsign RYR55LM
Flight time N/A
Altitude 32000
Route CIV UY50 LUMEN L610 NILON DCT WESUL M14 STOAT L613 MAMUL UY250 RIMTO
Aircraft B738/M-SDE2E3FGHIRWXY/LB1

Departure

Time 2026-04-30 14:32
Airport Brussels South Charleroi Airport (EBCI)

Arrival

Time N/A
Airport Newcastle International Airport (EGNT)
Time Latitude Longitude Altitude Speed Heading
2026-04-30 14:00 50.46869 4.47099 584 ft 0 kts 335°
2026-04-30 14:00 50.46871 4.47098 584 ft 0 kts 335°
2026-04-30 14:22 50.46858 4.47107 584 ft 4 kts 335°
2026-04-30 14:22 50.46825 4.47153 585 ft 5 kts 252°
2026-04-30 14:22 50.46835 4.47188 585 ft 3 kts 245°
2026-04-30 14:23 50.46836 4.47189 585 ft 2 kts 245°
2026-04-30 14:25 50.46828 4.47164 585 ft 5 kts 245°
2026-04-30 14:25 50.46776 4.46987 584 ft 13 kts 245°
2026-04-30 14:26 50.46685 4.46775 588 ft 12 kts 177°
2026-04-30 14:26 50.46607 4.46784 591 ft 12 kts 219°
2026-04-30 14:26 50.46522 4.46514 589 ft 15 kts 245°
2026-04-30 14:27 50.46476 4.46355 588 ft 17 kts 245°
2026-04-30 14:27 50.46429 4.46193 590 ft 16 kts 245°
2026-04-30 14:27 50.46384 4.46037 593 ft 15 kts 245°
2026-04-30 14:28 50.46293 4.45724 596 ft 18 kts 245°
2026-04-30 14:28 50.46241 4.45549 598 ft 17 kts 245°
2026-04-30 14:28 50.46192 4.45379 597 ft 17 kts 245°
2026-04-30 14:28 50.46144 4.45215 598 ft 16 kts 245°
2026-04-30 14:29 50.46048 4.44884 596 ft 16 kts 245°
2026-04-30 14:29 50.45946 4.44534 599 ft 16 kts 245°
2026-04-30 14:30 50.45775 4.44160 595 ft 10 kts 232°
2026-04-30 14:31 50.45635 4.43916 592 ft 18 kts 216°
2026-04-30 14:31 50.45634 4.44077 593 ft 33 kts 65°
2026-04-30 14:31 50.45828 4.44740 598 ft 98 kts 65°
2026-04-30 14:32 50.46682 4.47586 1152 ft 159 kts 67°
2026-04-30 14:32 50.47253 4.49072 1934 ft 165 kts 49°
2026-04-30 14:32 50.48289 4.49945 2661 ft 172 kts 28°
2026-04-30 14:33 50.49197 4.51056 3177 ft 167 kts 65°
2026-04-30 14:33 50.50431 4.54077 4250 ft 178 kts 60°
2026-04-30 14:33 50.51195 4.55736 4548 ft 196 kts 60°
2026-04-30 14:34 50.52043 4.57548 4743 ft 216 kts 59°
2026-04-30 14:34 50.53067 4.59431 4892 ft 242 kts 44°
2026-04-30 14:34 50.54713 4.60549 5090 ft 276 kts 12°
2026-04-30 14:34 50.56671 4.60260 5623 ft 293 kts 343°
2026-04-30 14:35 50.59629 4.55919 7008 ft 299 kts 303°
2026-04-30 14:35 50.60803 4.53197 7658 ft 302 kts 304°
2026-04-30 14:35 50.61994 4.50461 8345 ft 304 kts 304°
2026-04-30 14:36 50.63192 4.47704 9065 ft 307 kts 304°
2026-04-30 14:36 50.64402 4.44911 9756 ft 310 kts 304°
2026-04-30 14:36 50.65622 4.42088 10446 ft 313 kts 304°
2026-04-30 14:36 50.66880 4.39170 10726 ft 333 kts 304°
2026-04-30 14:37 50.68219 4.36059 10916 ft 353 kts 304°
2026-04-30 14:37 50.69617 4.32806 11359 ft 362 kts 304°
2026-04-30 14:37 50.71037 4.29494 11992 ft 366 kts 304°
2026-04-30 14:37 50.72467 4.26154 12709 ft 369 kts 305°
2026-04-30 14:38 50.73907 4.22786 13426 ft 372 kts 305°
2026-04-30 14:38 50.75357 4.19390 14135 ft 375 kts 305°
2026-04-30 14:38 50.76827 4.15944 14777 ft 379 kts 305°
2026-04-30 14:38 50.78300 4.12486 15428 ft 382 kts 304°
2026-04-30 14:39 50.79790 4.08982 16091 ft 386 kts 304°
2026-04-30 14:39 50.81293 4.05443 16724 ft 390 kts 304°
2026-04-30 14:39 50.82819 4.01847 17249 ft 397 kts 304°
2026-04-30 14:40 50.85920 3.94521 18587 ft 403 kts 304°
2026-04-30 14:40 50.87484 3.90818 19156 ft 406 kts 304°
2026-04-30 14:40 50.89059 3.87086 19723 ft 409 kts 304°
2026-04-30 14:40 50.90642 3.83327 20289 ft 412 kts 304°
2026-04-30 14:41 50.92236 3.79538 20874 ft 414 kts 304°
2026-04-30 14:41 50.93836 3.75730 21425 ft 417 kts 304°
2026-04-30 14:41 50.95447 3.71887 21979 ft 420 kts 304°
2026-04-30 14:41 50.97067 3.68019 22516 ft 422 kts 304°
2026-04-30 14:42 50.98699 3.64118 23050 ft 425 kts 304°
2026-04-30 14:42 51.00339 3.60190 23583 ft 428 kts 304°
2026-04-30 14:42 51.01988 3.56235 24060 ft 431 kts 304°
2026-04-30 14:42 51.03644 3.52256 24498 ft 433 kts 304°
2026-04-30 14:43 51.05307 3.48253 24931 ft 435 kts 304°
2026-04-30 14:43 51.06978 3.44227 25360 ft 437 kts 304°
2026-04-30 14:43 51.08654 3.40182 25813 ft 439 kts 304°
2026-04-30 14:43 51.10335 3.36119 26227 ft 441 kts 304°
2026-04-30 14:44 51.12024 3.32028 26611 ft 444 kts 304°
2026-04-30 14:44 51.13727 3.27899 26951 ft 448 kts 303°
2026-04-30 14:44 51.15438 3.23741 27285 ft 451 kts 303°
2026-04-30 14:44 51.17164 3.19543 27665 ft 454 kts 303°
2026-04-30 14:45 51.18896 3.15324 28062 ft 455 kts 303°
2026-04-30 14:45 51.20629 3.11092 28427 ft 458 kts 303°
2026-04-30 14:45 51.22374 3.06827 28774 ft 460 kts 303°
2026-04-30 14:45 51.24126 3.02537 29123 ft 462 kts 303°
2026-04-30 14:46 51.25885 2.98222 29472 ft 465 kts 303°
2026-04-30 14:46 51.27649 2.93886 29808 ft 467 kts 303°
2026-04-30 14:46 51.29420 2.89527 30123 ft 469 kts 303°
2026-04-30 14:46 51.30597 2.86629 30315 ft 470 kts 303°
2026-04-30 14:47 51.32982 2.80743 30708 ft 472 kts 302°
2026-04-30 14:47 51.34614 2.76179 31003 ft 473 kts 294°
2026-04-30 14:47 51.35799 2.71296 31382 ft 470 kts 285°
2026-04-30 14:47 51.36513 2.66218 31790 ft 466 kts 279°
2026-04-30 14:48 51.37091 2.61188 32162 ft 465 kts 278°
2026-04-30 14:48 51.37660 2.56113 32475 ft 465 kts 279°
2026-04-30 14:48 51.38245 2.51008 32797 ft 465 kts 279°
2026-04-30 14:48 51.38844 2.45922 33163 ft 464 kts 279°
2026-04-30 14:49 51.39451 2.40867 33532 ft 463 kts 279°
2026-04-30 14:49 51.40064 2.35792 33859 ft 462 kts 279°
2026-04-30 14:49 51.40670 2.30750 34149 ft 463 kts 279°
2026-04-30 14:49 51.41276 2.25681 34437 ft 462 kts 279°
2026-04-30 14:50 51.42501 2.15622 35071 ft 458 kts 279°
2026-04-30 14:50 51.43113 2.10626 35363 ft 457 kts 279°
2026-04-30 14:51 51.44323 2.00655 35877 ft 455 kts 279°
2026-04-30 14:51 51.44921 1.95673 36151 ft 454 kts 279°
2026-04-30 14:52 51.46684 1.80660 36227 ft 456 kts 278°
2026-04-30 14:52 51.48387 1.65732 36230 ft 451 kts 278°
2026-04-30 14:53 51.50063 1.50930 36230 ft 449 kts 278°
2026-04-30 14:54 51.52269 1.31211 36235 ft 450 kts 278°
2026-04-30 14:55 51.53914 1.16321 36236 ft 453 kts 278°
2026-04-30 14:56 51.56104 0.96275 36234 ft 458 kts 278°
2026-04-30 14:57 51.57729 0.81102 36242 ft 460 kts 277°
2026-04-30 14:58 51.60978 0.61247 36244 ft 464 kts 298°
2026-04-30 14:58 51.66925 0.48946 36232 ft 465 kts 312°
2026-04-30 15:00 51.79013 0.31699 36234 ft 463 kts 318°
2026-04-30 15:01 51.87860 0.19096 36242 ft 462 kts 318°
2026-04-30 15:01 51.95077 0.08740 36238 ft 462 kts 318°
2026-04-30 15:02 51.99883 0.01825 36237 ft 462 kts 318°
2026-04-30 15:03 52.07827 -0.06903 36226 ft 462 kts 332°
2026-04-30 15:03 52.13530 -0.11731 36225 ft 462 kts 332°
2026-04-30 15:04 52.27720 -0.24171 36218 ft 464 kts 332°
2026-04-30 15:06 52.41931 -0.36775 36218 ft 465 kts 331°
2026-04-30 15:07 52.53304 -0.46930 36211 ft 465 kts 331°
2026-04-30 15:08 52.64666 -0.57136 36212 ft 465 kts 331°
2026-04-30 15:09 52.78836 -0.69950 36238 ft 464 kts 331°
2026-04-30 15:10 52.90138 -0.80241 36239 ft 463 kts 331°
2026-04-30 15:11 53.03262 -0.92265 36232 ft 462 kts 330°
2026-04-30 15:17 53.18530 -1.06329 36237 ft 462 kts 330°
2026-04-30 15:18 53.32349 -1.19164 35130 ft 445 kts 330°
2026-04-30 15:19 53.40441 -1.26469 33978 ft 438 kts 339°